Change the Weather History Date:

Sunday, February 2, 2014

  Actual Average (LFKJ) Record (LFKJ)
Temperature  
Mean Temperature 51 °F -  
Max Temperature 54 °F 55 °F 60 °F (2007)
Min Temperature 48 °F 37 °F 26 °F (1999)
Degree Days  
Heating Degree Days 14    
Growing Degree Days 1 (Base 50)    
Moisture  
Dew Point 46 °F    
Average Humidity 85    
Maximum Humidity 94    
Minimum Humidity 67    
Precipitation  
Precipitation 0.08 in - - ()
Sea Level Pressure  
Sea Level Pressure 29.74 in    
Wind  
Wind Speed 4 mph ()    
Max Wind Speed 8 mph    
Max Gust Speed -    
Visibility 6.4 miles    
Events Rain    
Averages and records for this station are not official NWS values.
T = Trace of Precipitation, MM = Missing Value Source: Averaged Metar Reports

Daily Weather History Graph

Daily Weather History Graph

Search for Another Location

Airport or City:

Trip Planner

Search our weather history database for the weather conditions in past years. The results will help you decide how hot, cold, wet, or windy it might be!

Date:

Astronomy

Feb. 02, 2014 Rise Set
Actual Time 7:34 AM CET 5:38 PM CET
Civil Twilight 7:04 AM CET 6:07 PM CET
Nautical Twilight 6:31 AM CET 6:41 PM CET
Astronomical Twilight 5:58 AM CET 7:14 PM CET
Moon 8:47 AM CET (2/2) 9:07 PM CET (2/2)
Length of Visible Light 11h 03m
Length of Day
10h 04m
Waxing Crescent, 9% of the Moon is Illuminated
Feb 2
Waxing Crescent
Feb 6
First Quarter
Feb 15
Full
Feb 22
Last Quarter
Mar 1
New

Hourly Weather History & Observations

Time (CET) Temp. Dew Point Humidity Pressure Visibility Wind Dir Wind Speed Gust Speed Precip Events Conditions
12:00 AM 52 °F 48 °F 83% 29.74 in 37 mi WNW 3.5 mph - -   Clear
12:00 AM 51.8 °F 48.2 °F 88% 29.74 in 6.2 mi WNW 3.5 mph - N/A   Overcast
12:30 AM 51.8 °F 48.2 °F 88% 29.71 in 6.2 mi Variable 3.5 mph - N/A   Mostly Cloudy
1:00 AM 52 °F 49 °F 84% 29.73 in 37 mi NW 3.5 mph - -   Clear
1:00 AM 51.8 °F 48.2 °F 88% 29.71 in 6.2 mi Variable 3.5 mph - N/A   Overcast
1:30 AM 50.0 °F 46.4 °F 87% 29.71 in 6.2 mi Variable 3.5 mph - N/A   Overcast
2:00 AM 50 °F 46 °F 82% 29.73 in 37 mi West 4.6 mph - -   Clear
2:00 AM 50.0 °F 46.4 °F 87% 29.71 in 6.2 mi West 4.6 mph - N/A   Overcast
2:30 AM 50.0 °F 46.4 °F 87% 29.71 in 6.2 mi West 4.6 mph - N/A   Overcast
3:00 AM 50 °F 46 °F 81% 29.73 in 37 mi WNW 3.5 mph - -   Clear
3:00 AM 50.0 °F 46.4 °F 87% 29.71 in 6.2 mi WNW 3.5 mph - N/A   Mostly Cloudy
3:30 AM 50.0 °F 46.4 °F 87% 29.71 in 6.2 mi Variable 2.3 mph - N/A   Overcast
4:00 AM 50 °F 47 °F 86% 29.73 in 34 mi NNW 2.3 mph - -   Clear
4:00 AM 50.0 °F 46.4 °F 87% 29.71 in 6.2 mi Variable 2.3 mph - N/A   Overcast
4:30 AM 50.0 °F 48.2 °F 94% 29.71 in 6.2 mi NNE 4.6 mph - N/A   Overcast
5:00 AM 50 °F 48 °F 89% 29.73 in 37 mi NNW 3.5 mph - -   Clear
5:00 AM 50.0 °F 48.2 °F 94% 29.71 in 6.2 mi NNW 3.5 mph - N/A   Overcast
5:30 AM 50.0 °F 46.4 °F 87% 29.71 in 6.2 mi North 6.9 mph - N/A Rain Light Rain
6:00 AM 50 °F 47 °F 86% 29.74 in 4 mi NNW 4.6 mph - - Rain Rain
6:00 AM 50.0 °F 46.4 °F 87% 29.71 in 4.3 mi NNW 4.6 mph - N/A Rain Rain
6:30 AM 50.0 °F 48.2 °F 94% 29.71 in 6.2 mi NNW 5.8 mph - N/A   Overcast
7:00 AM 50 °F 47 °F 88% 29.74 in 7 mi NNW 6.9 mph - - Rain Light Drizzle
7:00 AM 50.0 °F 48.2 °F 94% 29.71 in 6.2 mi NNW 6.9 mph - N/A   Light Drizzle
7:30 AM 50.0 °F 46.4 °F 87% 29.71 in 6.2 mi NW 5.8 mph - N/A   Mostly Cloudy
8:00 AM 49 °F 46 °F 87% 29.74 in 37 mi NW 4.6 mph - -   Clear
8:00 AM 50.0 °F 46.4 °F 87% 29.74 in 6.2 mi NW 4.6 mph - N/A   Overcast
8:30 AM 50.0 °F 46.4 °F 87% 29.74 in 6.2 mi Variable 3.5 mph - N/A   Overcast
9:00 AM 49 °F 47 °F 89% 29.75 in 37 mi West 4.6 mph - -   Clear
9:00 AM 50.0 °F 46.4 °F 87% 29.74 in 6.2 mi West 4.6 mph - N/A   Overcast
9:30 AM 50.0 °F 46.4 °F 87% 29.74 in 6.2 mi West 5.8 mph - N/A   Overcast
10:00 AM 50 °F 47 °F 86% 29.75 in 37 mi West 5.8 mph - -   Clear
10:00 AM 50.0 °F 46.4 °F 87% 29.74 in 6.2 mi West 5.8 mph - N/A   Overcast
10:30 AM 50.0 °F 46.4 °F 87% 29.74 in 6.2 mi Variable 3.5 mph - N/A Rain Light Rain
11:00 AM 53 °F 48 °F 77% 29.75 in 37 mi NW 3.5 mph - - Rain Light Rain
11:00 AM 51.8 °F 48.2 °F 88% 29.74 in 6.2 mi NW 3.5 mph - N/A Rain Light Rain
11:30 AM 53.6 °F 46.4 °F 77% 29.74 in 6.2 mi North 5.8 mph - N/A   Scattered Clouds
12:00 PM 54 °F 47 °F 69% 29.75 in 37 mi NNE 6.9 mph - -   Clear
12:00 PM 55.4 °F 46.4 °F 72% 29.74 in 6.2 mi NNE 6.9 mph - N/A   Mostly Cloudy
12:30 PM 55.4 °F 46.4 °F 72% 29.74 in 6.2 mi North 6.9 mph - N/A   Overcast
1:00 PM 54 °F 46 °F 67% 29.75 in 37 mi NE 6.9 mph - -   Clear
1:00 PM 53.6 °F 46.4 °F 77% 29.74 in 6.2 mi NE 6.9 mph - N/A   Overcast
1:30 PM 53.6 °F 46.4 °F 77% 29.71 in 6.2 mi NNE 8.1 mph - N/A Rain Light Rain
2:00 PM 53 °F 46 °F 71% 29.74 in 25 mi NNE 5.8 mph - - Rain Light Rain
2:00 PM 53.6 °F 46.4 °F 77% 29.74 in 6.2 mi NNE 5.8 mph - N/A Rain Light Rain
2:30 PM 51.8 °F 46.4 °F 82% 29.74 in 6.2 mi NNE 4.6 mph - N/A Rain Light Rain
3:00 PM 52 °F 47 °F 77% 29.75 in 16 mi North 3.5 mph - - Rain Light Rain
3:00 PM 51.8 °F 46.4 °F 82% 29.74 in 6.2 mi North 3.5 mph - N/A Rain Light Rain
3:30 PM 51.8 °F 48.2 °F 88% 29.74 in 6.2 mi Variable 3.5 mph - N/A Rain Light Rain
4:00 PM 51 °F 47 °F 82% 29.77 in 12 mi NNW 2.3 mph - - Rain Light Rain
4:00 PM 51.8 °F 46.4 °F 82% 29.74 in 6.2 mi Variable 2.3 mph - N/A Rain Light Rain
4:30 PM 50.0 °F 46.4 °F 87% 29.77 in 6.2 mi WNW 1.2 mph - N/A Rain Light Rain
5:00 PM 50 °F 47 °F 87% 29.78 in 31 mi West 1.2 mph - - Rain Light Rain
5:00 PM 50.0 °F 48.2 °F 94% 29.77 in 6.2 mi Variable 1.2 mph - N/A Rain Light Rain
5:30 PM 50.0 °F 48.2 °F 94% 29.77 in 6.2 mi Variable 2.3 mph - N/A Rain Light Rain
6:00 PM 49 °F 47 °F 91% 29.78 in 22 mi West 3.5 mph - - Rain Light Rain
6:00 PM 50.0 °F 46.4 °F 87% 29.77 in 6.2 mi West 3.5 mph - N/A Rain Light Rain
6:30 PM 48.2 °F 46.4 °F 93% 29.77 in 6.2 mi West 4.6 mph - N/A   Light Drizzle
7:00 PM 48 °F 46 °F 89% 29.78 in 37 mi West 3.5 mph - -   Clear
7:00 PM 48.2 °F 46.4 °F 93% 29.77 in 6.2 mi West 3.5 mph - N/A   Overcast
7:30 PM 48.2 °F 44.6 °F 87% 29.77 in 6.2 mi West 4.6 mph - N/A   Overcast
8:00 PM 49 °F 44 °F 79% 29.78 in 37 mi WNW 4.6 mph - -   Clear
8:00 PM 48.2 °F 44.6 °F 87% 29.77 in 6.2 mi WNW 4.6 mph - N/A   Overcast
8:30 PM 48.2 °F 44.6 °F 87% 29.77 in 6.2 mi West 4.6 mph - N/A   Overcast
9:00 PM 49 °F 45 °F 79% 29.78 in 37 mi West 5.8 mph - -   Clear
9:00 PM 48.2 °F 44.6 °F 87% 29.77 in 6.2 mi West 5.8 mph - N/A   Overcast
9:30 PM 50.0 °F 42.8 °F 76% 29.77 in 6.2 mi WNW 4.6 mph - N/A   Overcast
10:00 PM 49 °F 45 °F 79% 29.78 in 37 mi WNW 2.3 mph - -   Clear
10:00 PM 48.2 °F 44.6 °F 87% 29.77 in 6.2 mi Variable 2.3 mph - N/A   Overcast
10:30 PM 48.2 °F 44.6 °F 87% 29.77 in 6.2 mi West 5.8 mph - N/A   Overcast
11:00 PM 48 °F 44 °F 79% 29.78 in 37 mi West 5.8 mph - -   Clear
11:00 PM 48.2 °F 42.8 °F 82% 29.77 in 6.2 mi West 5.8 mph - N/A   Overcast
11:30 PM 48.2 °F 44.6 °F 87% 29.77 in 6.2 mi WNW 4.6 mph - N/A   Overcast